Barcelona, Spain

5:36 PM CET on February 07, 2016 (GMT +0100)
Barcelona

Weather History for 08181 - November, 2013

Change the Weather History Date:

Wednesday, November 13, 2013

  Actual Average Record
Temperature  
Mean Temperature 62 °F -  
Max Temperature 68 °F 58 °F - ()
Min Temperature 57 °F 45 °F - ()
Degree Days  
Heating Degree Days 2    
Growing Degree Days 12 (Base 50)    
Moisture  
Dew Point 53 °F    
Average Humidity 69    
Maximum Humidity 82    
Minimum Humidity 52    
Precipitation  
Precipitation 0.00 in 0.08 in - ()
Sea Level Pressure  
Sea Level Pressure 30.11 in    
Wind  
Wind Speed 7 mph ()    
Max Wind Speed 15 mph    
Max Gust Speed 26 mph    
Visibility 9.1 miles    
Events      
T = Trace of Precipitation, MM = Missing Value Source: Averaged Metar Reports

Daily Weather History Graph

Daily Weather History Graph

Search for Another Location

Airport or City:

Trip Planner

Search our weather history database for the weather conditions in past years. The results will help you decide how hot, cold, wet, or windy it might be!

Date:

Astronomy

Nov. 13, 2013 Rise Set
Actual Time 7:37 AM CET 5:34 PM CET
Civil Twilight 7:07 AM CET 6:03 PM CET
Nautical Twilight 6:34 AM CET 6:36 PM CET
Astronomical Twilight 6:02 AM CET 7:09 PM CET
Moon 3:15 PM CET (11/13) 3:11 AM CET (11/13)
Length of Visible Light 10h 55m
Length of Day
9h 56m
Waxing Gibbous, 82% of the Moon is Illuminated
Nov 13
Waxing Gibbous
Nov 17
Full
Nov 25
Last Quarter
Dec 3
New
Dec 9
First Quarter

Hourly Weather History & Observations

Time (CET) Temp. Dew Point Humidity Pressure Visibility Wind Dir Wind Speed Gust Speed Precip Events Conditions
12:00 AM 60 °F 51 °F 65% 30.13 in 13 mi NNW 5.8 mph - -  
12:00 AM 59.0 °F 48.2 °F 67% 30.12 in 6.2 mi NW 5.8 mph - N/A   Partly Cloudy
12:30 AM 59.0 °F 50.0 °F 72% 30.12 in 6.2 mi NW 5.8 mph - N/A   Partly Cloudy
1:00 AM 60 °F 51 °F 64% 30.13 in 12 mi North 6.9 mph - -   Scattered Clouds
1:00 AM 60.8 °F 48.2 °F 63% 30.12 in 6.2 mi North 4.6 mph - N/A   Partly Cloudy
1:30 AM 60.8 °F 48.2 °F 63% 30.09 in 6.2 mi NW 4.6 mph - N/A   Partly Cloudy
2:00 AM 61 °F 53 °F 68% 30.12 in 12 mi North 8.1 mph - -  
2:00 AM 60.8 °F 50.0 °F 68% 30.09 in 6.2 mi NNW 6.9 mph - N/A   Partly Cloudy
2:30 AM 60.8 °F 50.0 °F 68% 30.09 in 6.2 mi NNW 9.2 mph - N/A   Scattered Clouds
3:00 AM 60.8 °F 51.8 °F 72% 30.09 in 6.2 mi NW 8.1 mph - N/A   Scattered Clouds
3:30 AM 59.0 °F 50.0 °F 72% 30.09 in 6.2 mi NNW 9.2 mph - N/A   Scattered Clouds
4:00 AM 59.0 °F 48.2 °F 67% 30.09 in 6.2 mi NNW 8.1 mph - N/A   Scattered Clouds
4:30 AM 59.0 °F 48.2 °F 67% 30.09 in 6.2 mi NW 9.2 mph - N/A   Scattered Clouds
5:00 AM 59 °F 51 °F 66% 30.09 in 17 mi North 11.5 mph - -  
5:30 AM 59.0 °F 48.2 °F 67% 30.09 in 6.2 mi NNW 8.1 mph - N/A   Scattered Clouds
6:00 AM 59 °F 51 °F 67% 30.10 in 18 mi North 10.4 mph - -  
6:00 AM 59.0 °F 48.2 °F 67% 30.09 in 6.2 mi NNW 6.9 mph - N/A   Scattered Clouds
6:30 AM 60.8 °F 50.0 °F 68% 30.09 in 6.2 mi North 10.4 mph - N/A   Scattered Clouds
7:00 AM 60 °F 52 °F 68% 30.10 in 19 mi North 9.2 mph - -   Scattered Clouds
7:00 AM 60.8 °F 50.0 °F 68% 30.09 in 6.2 mi North 11.5 mph - N/A   Scattered Clouds
7:30 AM 59.0 °F 48.2 °F 67% 30.09 in 6.2 mi NNW 11.5 mph - N/A   Scattered Clouds
8:00 AM 58 °F 51 °F 70% 30.11 in 18 mi North 9.2 mph - -  
8:00 AM 57.2 °F 48.2 °F 72% 30.09 in 6.2 mi NNW 10.4 mph - N/A   Partly Cloudy
8:30 AM 57.2 °F 48.2 °F 72% 30.09 in 6.2 mi NNW 12.7 mph - N/A   Partly Cloudy
9:00 AM 58 °F 51 °F 71% 30.13 in 16 mi North 9.2 mph - -  
9:00 AM 57.2 °F 48.2 °F 72% 30.12 in 6.2 mi NW 11.5 mph 25.3 mph N/A   Partly Cloudy
9:30 AM 57.2 °F 50.0 °F 77% 30.12 in 6.2 mi NNW 12.7 mph - N/A   Partly Cloudy
10:00 AM 59.0 °F 50.0 °F 72% 30.12 in 6.2 mi NNW 13.8 mph 26.5 mph N/A   Partly Cloudy
10:30 AM 62.6 °F 50.0 °F 63% 30.12 in 6.2 mi NW 11.5 mph - N/A   Partly Cloudy
11:00 AM 65 °F 53 °F 56% 30.15 in 13 mi North 15.0 mph - -  
11:00 AM 64.4 °F 50.0 °F 59% 30.12 in 6.2 mi NNW 12.7 mph - N/A   Partly Cloudy
11:30 AM 64.4 °F 51.8 °F 64% 30.12 in 6.2 mi NNW 11.5 mph 23.0 mph N/A   Partly Cloudy
12:00 PM 67 °F 54 °F 52% 30.14 in 19 mi North 6.9 mph - -  
12:00 PM 66.2 °F 51.8 °F 60% 30.12 in 6.2 mi NNW 9.2 mph - N/A   Partly Cloudy
12:30 PM 66.2 °F 51.8 °F 60% 30.12 in 6.2 mi NW 8.1 mph - N/A   Partly Cloudy
1:00 PM 67 °F 56 °F 58% 30.12 in 19 mi SW 5.8 mph - -   Scattered Clouds
1:00 PM 68.0 °F 51.8 °F 56% 30.12 in 6.2 mi West 3.5 mph - N/A   Partly Cloudy
1:30 PM 66.2 °F 51.8 °F 60% 30.09 in 6.2 mi West 4.6 mph - N/A   Partly Cloudy
2:00 PM 68 °F 55 °F 53% 30.11 in 19 mi SW 4.6 mph - -  
2:00 PM 66.2 °F 51.8 °F 60% 30.09 in 6.2 mi SW 4.6 mph - N/A   Partly Cloudy
2:30 PM 66.2 °F 53.6 °F 64% 30.09 in 6.2 mi SSW 5.8 mph - N/A   Partly Cloudy
3:00 PM 67 °F 54 °F 55% 30.10 in 19 mi South 4.6 mph - -  
3:00 PM 66.2 °F 53.6 °F 64% 30.09 in 6.2 mi SSW 5.8 mph - N/A   Partly Cloudy
3:30 PM 66.2 °F 55.4 °F 68% 30.09 in 6.2 mi SSW 4.6 mph - N/A   Partly Cloudy
4:00 PM 64.4 °F 57.2 °F 77% 30.09 in 6.2 mi SSE 5.8 mph - N/A   Partly Cloudy
4:30 PM 64.4 °F 57.2 °F 77% 30.09 in 6.2 mi South 6.9 mph - N/A   Partly Cloudy
5:00 PM 65 °F 59 °F 74% 30.11 in 19 mi South 5.8 mph - -  
5:00 PM 64.4 °F 55.4 °F 73% 30.09 in 6.2 mi South 5.8 mph - N/A   Partly Cloudy
5:30 PM 64.4 °F 57.2 °F 77% 30.09 in 6.2 mi SSW 5.8 mph - N/A   Partly Cloudy
6:00 PM 63 °F 59 °F 82% 30.12 in 19 mi SW 4.6 mph - -  
6:00 PM 62.6 °F 57.2 °F 82% 30.09 in 6.2 mi SSW 4.6 mph - N/A   Partly Cloudy
6:30 PM 62.6 °F 55.4 °F 77% 30.12 in 6.2 mi SW 3.5 mph - N/A   Partly Cloudy
7:00 PM 63 °F 58 °F 80% 30.13 in 17 mi West 2.3 mph - -   Scattered Clouds
7:00 PM 62.6 °F 55.4 °F 77% 30.12 in 6.2 mi WSW 3.5 mph - N/A   Partly Cloudy
7:30 PM 62.6 °F 55.4 °F 77% 30.12 in 6.2 mi Variable 2.3 mph - N/A   Partly Cloudy
8:00 PM 62.6 °F 55.4 °F 77% 30.12 in 6.2 mi Calm Calm - N/A   Scattered Clouds
8:30 PM 62.6 °F 55.4 °F 77% 30.12 in 6.2 mi Calm Calm - N/A   Partly Cloudy
9:00 PM 62 °F 57 °F 78% 30.15 in 18 mi Calm Calm - -  
9:00 PM 60.8 °F 55.4 °F 82% 30.12 in 6.2 mi Calm Calm - N/A   Scattered Clouds
9:30 PM 62.6 °F 53.6 °F 72% 30.15 in 6.2 mi Calm Calm - N/A   Mostly Cloudy
10:00 PM 60.8 °F 53.6 °F 77% 30.15 in 6.2 mi Calm Calm - N/A   Scattered Clouds
10:30 PM 62.6 °F 53.6 °F 72% 30.15 in 6.2 mi WNW 4.6 mph - N/A   Mostly Cloudy
11:00 PM 62 °F 57 °F 79% 30.17 in 12 mi Calm Calm - -  
11:00 PM 62.6 °F 55.4 °F 77% 30.15 in 6.2 mi WNW 4.6 mph - N/A   Mostly Cloudy
11:30 PM 60.8 °F 53.6 °F 77% 30.15 in 6.2 mi NW 3.5 mph - N/A   Mostly Cloudy